This is the latest recevied weather packets stored in our database for station/object K1RFS. If no packets are shown the sender has not sent any weather packets the latest 10 day(s).
| Time | Temp. | Humidity | Pressure | Rain* | Wind** | Luminosity | Snow |
|---|---|---|---|---|---|---|---|
| 1787390110 | 18.33° C | 84% | 1010 hPa | 0 mm | - | 0 W/m² | - |
| 1787389806 | 18.33° C | 84% | 1009.8 hPa | 0 mm | - | 0 W/m² | - |
| 1787389501 | 18.89° C | 84% | 1009.8 hPa | 0 mm | - | 0 W/m² | - |
| 1787389197 | 18.89° C | 83% | 1009.7 hPa | 0 mm | - | 0 W/m² | - |
| 1787388894 | 18.89° C | 82% | 1009.6 hPa | 0 mm | - | 0 W/m² | - |
| 1787388589 | 18.89° C | 84% | 1009.6 hPa | 0 mm | - | 0 W/m² | - |
| 1787388286 | 18.89° C | 84% | 1009.5 hPa | 1.27 mm | - | 0 W/m² | - |
| 1787387980 | 18.33° C | 83% | 1009.8 hPa | 1.27 mm | - | 0 W/m² | - |
| 1787387677 | 18.33° C | 86% | 1010.1 hPa | 1.78 mm | - | 0 W/m² | - |
| 1787387376 | 18.33° C | 86% | 1010.1 hPa | 1.78 mm | - | 0 W/m² | - |
| 1787387071 | 18.89° C | 86% | 1010.4 hPa | 0 mm | - | 0 W/m² | - |
| 1787386767 | 18.89° C | 86% | 1010.4 hPa | 1.27 mm | - | 0 W/m² | - |
| 1787386463 | 18.89° C | 85% | 1010.4 hPa | 1.27 mm | - | 0 W/m² | - |
| 1787386153 | 19.44° C | 85% | 1010.5 hPa | 0 mm | - | 0 W/m² | - |
| 1787385849 | 19.44° C | 84% | 1010.6 hPa | 0 mm | - | 0 W/m² | - |
| 1787385548 | 19.44° C | 83% | 1010.8 hPa | 1.78 mm | - | 0 W/m² | - |
| 1787385248 | 19.44° C | 83% | 1010.6 hPa | 1.78 mm | - | 0 W/m² | - |
| 1787384944 | 19.44° C | 82% | 1010.6 hPa | 0 mm | - | 0 W/m² | - |
| 1787384640 | 18.89° C | 81% | 1010.3 hPa | 0 mm | - | 0 W/m² | - |
| 1787384337 | 19.44° C | 81% | 1010.5 hPa | 0 mm | - | 0 W/m² | - |
| 1787384037 | 19.44° C | 80% | 1010.9 hPa | 0 mm | - | 0 W/m² | - |
| 1787383732 | 19.44° C | 79% | 1010.9 hPa | 1.27 mm | - | 0 W/m² | - |
| 1787383428 | 19.44° C | 78% | 1010.6 hPa | 1.27 mm | - | 0 W/m² | - |
| 1787383124 | 19.44° C | 77% | 1010.5 hPa | 1.78 mm | - | 0 W/m² | - |
| 1787382820 | 19.44° C | 77% | 1010.6 hPa | 1.78 mm | - | 0 W/m² | - |
* Rain latest hour (hover to see other rain measurements)
** Current wind speed in m/s (hover to see current wind gust speed)